Regional Weather Roundup
Issued by NWS

Home | Current Version | Previous Version | Text Only | Print | Product List | Glossary Off
Versions: 1 2 3 4 5 6 7 8 9 10 11 12 13 14 15 16 17 18 19 20 21 22 23 24 25 26 27 28 29 30 31 32 33 34 35 36 37 38 39 40 41 42 43 44 45 46 47 48 49 50

133
ASUS43 KMPX 241901
RWRMN
WEATHER ROUNDUP FOR MINNESOTA
NATIONAL WEATHER SERVICE TWIN CITIES/CHANHASSEN MN
200 PM CDT SUN SEP 24 2017


NOTE: "FAIR" INDICATES FEW OR NO CLOUDS BELOW 12,000 FEET WITH NO
SIGNIFICANT WEATHER AND/OR OBSTRUCTIONS TO VISIBILITY. N/A MEANS
CURRENT SKY AND/OR WEATHER CONDITIONS ARE NOT AVAILABLE.

MNZ060>063-068>070-242000-
   Twin Cities Metro

CITY           SKY/WX    TMP DP  RH WIND       PRES   REMARKS
TWIN CITIES    PTSUNNY   89  64  43 S18G25    29.90F HX  90
ST PAUL        MOSUNNY   88  64  44 S14       29.90F
CRYSTAL        MOSUNNY   86  62  44 S15G21    29.88F
BLAINE         MOSUNNY   90  64  43 S13G22    29.89F HX  91
LAKEVILLE      MOSUNNY   88  64  45 S10       29.91F
EDEN PRAIRIE   MOSUNNY   90  65  43 S16G23    29.88F HX  92
SOUTH ST PAUL  SUNNY     89  59  36 S14G20    29.90F
LAKE ELMO      FAIR      88  64  45 S14       29.92F
$$
MNZ001>005-007-008-013>017-022>024-027-028-242000-
   Northwest Minnesota

CITY           SKY/WX    TMP DP  RH WIND       PRES   REMARKS
BEMIDJI        CLOUDY    72  67  83 S7        29.81F
HALLOCK        RAIN      54  52  94 N18       29.84F
ROSEAU         LGT RAIN  57  52  82 N8        29.82F
CROOKSTON      LGT RAIN  54  54 100 NW13      29.86R
FOSSTON        DRIZZLE   61  61 100 CALM      29.83S
DETROIT LAKES  CLOUDY    68  63  83 SW13      29.85S
MOORHEAD       LGT RAIN  55  54  94 NW9       29.86R
PARK RAPIDS    PTSUNNY   77  67  71 S14G25    29.83S
MAHNOMEN       CLOUDY    65  63  94 SW9       29.83R
$$
MNZ006-009>011-018-025>026-242000-
   North Central Minnesota

CITY           SKY/WX    TMP DP  RH WIND       PRES   REMARKS
BAUDETTE       CLOUDY    62  61  96 CALM      29.81F
FLAG ISLAND    RAIN      57  55  94 N6        29.82F
INTL FALLS     CLOUDY    72  65  78 SW10      29.82F
WASKISH        CLOUDY    68  64  88 CALM      29.82F
BIG FORK       MOSUNNY   79  66  65 S12       29.83F
LONGVILLE      MOSUNNY   81  68  65 S10G17    29.84F
GRAND RAPIDS   CLOUDY    78  68  71 S14G21    29.87F
CRANE LAKE     PTSUNNY   79  68  69 S9G18     29.85F
ORR            CLOUDY    79  64  61 S12G20    29.82F
WALKER         FAIR      75  67  74 S9G18     29.82F
$$
MNZ012-019>021-037-242000-
   Northeast Minnesota

CITY           SKY/WX    TMP DP  RH WIND       PRES   REMARKS
DULUTH         MOSUNNY   78  68  71 S9        29.91F
ELY            CLOUDY    81  64  57 S14G21    29.88F
HIBBING        CLOUDY    80  67  64 S12       29.86F
EVELETH        MOSUNNY   81  65  58 S7G20     29.88F
DULUTH HARBOR  CLOUDY    64  63  94 NE7       29.91F
GRAND MARAIS     N/A     67  63  87 NE7       29.93S
$$
MNZ029>031-032-039>041-046>048-054>057-064-242000-
   West Central Minnesota

CITY           SKY/WX    TMP DP  RH WIND       PRES   REMARKS
FERGUS FALLS   CLOUDY    68  66  94 SW9       29.84F
WHEATON        CLOUDY    68  61  77 SW9       29.85F
ALEXANDRIA     PTSUNNY   78  67  68 S9        29.85F
ELBOW LAKE     PTSUNNY   70  65  83 W8        29.85F HAZE
WADENA         CLOUDY    75  66  73 SW13G22   29.84S
GLENWOOD       CLOUDY    81  68  65 S10G21    29.85F
APPLETON       LGT RAIN  79  66  65 W12       29.82F
BENSON         CLOUDY    82  66  57 W14G22    29.84F
ORTONVILLE     MOSUNNY   73  64  73 W7        29.84F
MADISON        CLOUDY    81  68  65 SW9       29.83F
WILLMAR        FAIR      86  66  51 S10G17    29.84F
$$
MNZ033>034-036-042>043-049>051-058-059-242000-
   Central Minnesota

CITY           SKY/WX    TMP DP  RH WIND       PRES   REMARKS
ST CLOUD       MOSUNNY   84  68  58 S20G26    29.87F
SAUK CENTRE    MOCLDY    80  68  65 S14G21    29.85F
PAYNESVILLE    MOSUNNY   84  67  56 S10G22    29.86F
AITKIN         MOSUNNY   81  68  65 S10       29.85F
PINE RIVER     MOSUNNY   79  66  65 S12G20    29.87F
BRAINERD       CLOUDY    81  68  64 S13       29.85F
STAPLES        PTSUNNY   79  64  61 S10G21    29.84S
LITTLE FALLS   PTSUNNY   81  59  47 S14G23    29.86F
LITCHFIELD     PTSUNNY   86  68  54 S8        29.86F
BUFFALO        MOSUNNY   86  63  45 S14G20    29.89F
MAPLE LAKE     MOSUNNY   86  67  53 S10G21    29.89F
HUTCHINSON     CLOUDY    85  67  55 S12G18    29.89F
$$
MNZ037-044-045-052-053-242000-
   East Central Minnesota

CITY           SKY/WX    TMP DP  RH WIND       PRES   REMARKS
PRINCETON      MOSUNNY   88  66  48 S7        29.88F HX  90
MORA           CLOUDY    84  64  51 S14G20    29.90S
RUSH CITY      MOSUNNY   86  66  51 S10       29.90F
MOOSE LAKE     MOSUNNY   82  64  54 SW9       29.87F
HINCKLEY       FAIR      84  66  54 S10G18    29.89F
CLOQUET        MOSUNNY   82  63  51 S13       29.90F
MCGREGOR       MOSUNNY   81  66  61 S17       29.88F
$$
MNZ071>073-080-081-089-090-097-098-242000-
   Southwest Minnesota

CITY           SKY/WX    TMP DP  RH WIND       PRES   REMARKS
MONTEVIDEO     MOSUNNY   84  66  54 W14G22    29.83F
GRANITE FALLS  CLOUDY    82  67  60 SW33G40   29.87R
CANBY          CLOUDY    79  67  66 SW10G16   29.84F
MARSHALL       CLOUDY    80  70  71 SW13G18   29.84F
REDWOOD FALLS  MOSUNNY   87  63  44 SW18G30   29.84F
OLIVIA         MOSUNNY   84  63  48 S18G28    29.85F
PIPESTONE      CLOUDY    81  66  61 S16G24    29.87F
WORTHINGTON    PTSUNNY   86  64  47 S18G26    29.89F
JACKSON        PTSUNNY   82  59  44 SW17G29   29.91F
TRACY          PTSUNNY   85  66  51 S15       29.86F
SLAYTON        CLOUDY    83  59  44 S20G26    29.89S
$$
MNZ065>067-074>077-082>085-091>093-242000-
   South Central Minnesota

CITY           SKY/WX    TMP DP  RH WIND       PRES   REMARKS
MANKATO        MOSUNNY   87  65  47 S14       29.90F
NEW ULM        CLOUDY    88  63  42 S20       29.87F
ST JAMES       MOSUNNY   88  61  40 S18G24    29.89F
FAIRMONT       MOSUNNY   87  63  44 S15       29.90F
FARIBAULT      MOSUNNY   88  64  45 S13G22    29.92F
OWATONNA       SUNNY     88  64  45 S15G22    29.93F
WASECA         PTSUNNY   84  61  45 S12G18    29.93F
ALBERT LEA     MOSUNNY   90  63  40 S13G18    29.94F HX  90
$$
MNZ078>079-086>088-094>096-242000-
   Southeast Minnesota

CITY           SKY/WX    TMP DP  RH WIND       PRES   REMARKS
ROCHESTER      MOSUNNY   87  63  44 SW13G24   29.96F
RED WING       MOSUNNY   90  57  33 S12       29.91F
STANTON        SUNNY     88  62  41 S12       29.91F
DODGE CENTER   MOSUNNY   88  57  35 S17G24    29.95F
WINONA         MOSUNNY   90  59  35 SW7       29.95F
AUSTIN         MOSUNNY   86  61  42 S12G18    29.95F
PRESTON        MOSUNNY   86  60  40 SW12G21   29.98F
$$
ABBREVIATIONS USED IN REMARKS
   TC - TEMPERATURES IN CELSIUS
  WCI - WIND CHILL INDEX
   HX - HEAT INDEX
  VSB - VISIBILITY
$$




USA.gov is the U.S. government's official web portal to all federal, state and local government web resources and services.